Location: Zagreb
(45.8000°N, 16.0000°E)
Time: 11:13:23
(UTC+02:00)

Transit 4A - Visible Passes

Search period start: 15 July 2024 00:00
Search period end: 25 July 2024 00:00
Orbit: 870 x 973 km, 66.8° (Epoch: 14 July)

Date Brightness Start Highest point End Pass type
(mag) Time Alt. Az. Time Alt. Az. Time Alt. Az.
15 Jul 10.5 00:07:32 10° N 00:10:29 14° NNE 00:13:27 10° NE visible
15 Jul 9.0 01:52:49 10° NNW 01:58:29 42° NE 02:04:17 10° ESE visible
15 Jul 8.3 03:39:14 10° NW 03:44:49 40° WSW 03:50:31 10° S visible
16 Jul 10.4 00:16:15 10° N 00:20:01 17° NNE 00:23:48 10° ENE visible
16 Jul 8.4 02:01:43 10° NNW 02:07:39 58° NE 02:13:42 10° SE visible
16 Jul 8.8 03:48:36 10° NW 03:53:39 28° WSW 03:58:00 13° SSW visible
17 Jul 10.1 00:25:01 10° NNW 00:29:27 21° NE 00:33:58 10° E visible
17 Jul 7.9 02:10:42 10° NNW 02:16:44 80° NE 02:21:43 16° SE visible
17 Jul 9.2 03:58:16 10° WNW 04:02:24 19° WSW 04:05:06 15° SW visible
17 Jul 10.7 22:49:10 10° N 22:50:14 10° NNE 22:51:19 10° NNE visible
18 Jul 9.7 00:33:49 10° NNW 00:38:50 27° NE 00:43:55 10° E visible
18 Jul 7.8 02:19:44 10° NW 02:25:44 75° WSW 02:29:11 28° SSE visible
18 Jul 9.6 04:08:38 10° WNW 04:11:06 13° WSW 04:12:35 12° WSW visible
18 Jul 10.4 22:57:33 10° N 22:59:52 12° NNE 23:02:12 10° NE visible
19 Jul 9.2 00:42:40 10° NNW 00:48:07 35° NE 00:53:29 11° ESE visible
19 Jul 8.0 02:28:51 10° NW 02:34:41 52° WSW 02:36:52 36° S visible
19 Jul 10.3 23:06:12 10° N 23:09:26 15° NNE 23:12:42 10° ENE visible
20 Jul 8.7 00:51:33 10° NNW 00:57:20 46° NE 01:01:21 20° ESE visible
20 Jul 8.5 02:38:06 10° NW 02:43:34 36° WSW 02:44:46 33° SW visible
20 Jul 10.1 23:14:57 10° N 23:18:56 18° NNE 23:22:59 10° ENE visible
21 Jul 8.2 01:00:29 10° NNW 01:06:28 64° NE 01:09:22 32° SE visible
21 Jul 8.9 02:47:33 10° NW 02:52:22 25° WSW 02:52:48 25° WSW visible
21 Jul 9.8 23:23:44 10° NNW 23:28:22 23° NE 23:33:04 10° E visible
22 Jul 7.8 01:09:28 10° NNW 01:15:32 87° ENE 01:17:29 46° SE visible
22 Jul 9.4 02:57:21 10° WNW 03:00:56 17° WSW 03:00:56 17° WSW visible
22 Jul 10.4 21:47:39 10° N 21:49:13 11° NNE 21:50:47 10° NNE visible
22 Jul 9.4 23:32:33 10° NNW 23:37:43 29° NE 23:42:16 13° E visible
23 Jul 7.8 01:18:32 10° NW 01:24:31 67° WSW 01:25:43 55° S visible
23 Jul 9.9 03:08:15 10° W 03:09:09 11° W 03:09:09 11° W visible
23 Jul 10.2 21:56:12 10° N 21:58:50 13° NNE 22:01:29 10° NE visible
23 Jul 8.9 23:41:24 10° NNW 23:46:59 38° NE 23:50:33 20° ESE visible
24 Jul 8.2 01:27:41 10° NW 01:33:27 47° WSW 01:34:00 46° SW visible
24 Jul 10.1 22:04:53 10° N 22:08:23 16° NNE 22:11:55 10° ENE visible
